TimeCEST,TemperatureF,Dew PointF,Humidity,Sea Level PressureIn,VisibilityMPH,Wind Direction,Wind SpeedMPH,Gust SpeedMPH,PrecipitationIn,Events,Conditions,WindDirDegrees,DateUTC
12:20 AM,41.0,37.4,87,30.48,6.2,North,11.5,-,N/A,,Mostly Cloudy,10,2013-04-19 22:20:00
12:50 AM,41.0,37.4,87,30.48,6.2,NNE,12.7,-,N/A,,Mostly Cloudy,20,2013-04-19 22:50:00
1:20 AM,41.0,35.6,81,30.48,6.2,NNE,11.5,-,N/A,,Mostly Cloudy,30,2013-04-19 23:20:00
1:50 AM,41.0,35.6,81,30.48,6.2,NNE,11.5,-,N/A,,Scattered Clouds,30,2013-04-19 23:50:00
2:00 AM,41,36,77,30.50,12,NNE,11.2,,,,Partly Cloudy,30,2013-04-20 00:00:00
2:20 AM,41.0,37.4,87,30.48,6.2,NNE,10.4,-,N/A,,Partly Cloudy,20,2013-04-20 00:20:00
2:50 AM,41.0,35.6,81,30.48,6.2,NNE,11.5,-,N/A,,Partly Cloudy,20,2013-04-20 00:50:00
3:20 AM,41.0,35.6,81,30.48,6.2,NNE,11.5,-,N/A,,Partly Cloudy,30,2013-04-20 01:20:00
3:50 AM,41.0,35.6,81,30.48,6.2,NNE,11.5,-,N/A,,Partly Cloudy,30,2013-04-20 01:50:00
4:20 AM,41.0,35.6,81,30.48,6.2,NNE,11.5,-,N/A,,Partly Cloudy,30,2013-04-20 02:20:00
4:50 AM,39.2,35.6,87,30.48,6.2,NNE,10.4,-,N/A,,Scattered Clouds,30,2013-04-20 02:50:00
5:00 AM,40,35,75,30.50,12,NNE,8.9,,,,Partly Cloudy,30,2013-04-20 03:00:00
5:20 AM,39.2,35.6,87,30.51,6.2,NNE,10.4,-,N/A,,Scattered Clouds,30,2013-04-20 03:20:00
5:50 AM,41.0,35.6,81,30.51,6.2,NNE,12.7,-,N/A,,Scattered Clouds,20,2013-04-20 03:50:00
6:20 AM,39.2,35.6,87,30.51,6.2,NE,9.2,-,N/A,,Partly Cloudy,40,2013-04-20 04:20:00
6:50 AM,39.2,33.8,81,30.51,6.2,NE,10.4,-,N/A,,Partly Cloudy,50,2013-04-20 04:50:00
7:20 AM,41.0,35.6,81,30.51,6.2,NE,10.4,-,N/A,,Partly Cloudy,50,2013-04-20 05:20:00
7:50 AM,41.0,32.0,70,30.51,6.2,ENE,9.2,-,N/A,,Partly Cloudy,70,2013-04-20 05:50:00
8:00 AM,40,32,65,30.53,12,ENE,8.9,,,,Scattered Clouds,70,2013-04-20 06:00:00
8:20 AM,42.8,33.8,70,30.54,6.2,NE,10.4,-,N/A,,Partly Cloudy,50,2013-04-20 06:20:00
8:50 AM,42.8,32.0,66,30.51,6.2,ENE,11.5,-,N/A,,Partly Cloudy,60,2013-04-20 06:50:00
9:20 AM,42.8,32.0,66,30.54,6.2,NE,13.8,-,N/A,,Partly Cloudy,40,2013-04-20 07:20:00
9:50 AM,44.6,33.8,66,30.54,6.2,NNE,12.7,-,N/A,,Partly Cloudy,30,2013-04-20 07:50:00
10:20 AM,46.4,30.2,53,30.51,6.2,NNE,12.7,-,N/A,,Partly Cloudy,30,2013-04-20 08:20:00
10:50 AM,46.4,33.8,62,30.51,6.2,NNE,15.0,-,N/A,,Partly Cloudy,20,2013-04-20 08:50:00
11:00 AM,46,33,49,30.53,19,NNE,15.7,,,,Partly Cloudy,20,2013-04-20 09:00:00
11:20 AM,46.4,32.0,57,30.51,6.2,NE,16.1,-,N/A,,Partly Cloudy,40,2013-04-20 09:20:00
11:50 AM,46.4,32.0,57,30.51,6.2,NNE,15.0,-,N/A,,Partly Cloudy,30,2013-04-20 09:50:00
12:20 PM,46.4,35.6,66,30.51,6.2,North,17.3,-,N/A,,Partly Cloudy,10,2013-04-20 10:20:00
12:50 PM,46.4,35.6,66,30.51,6.2,North,16.1,-,N/A,,Partly Cloudy,10,2013-04-20 10:50:00
1:20 PM,46.4,35.6,66,30.51,6.2,North,17.3,-,N/A,,Partly Cloudy,10,2013-04-20 11:20:00
1:50 PM,46.4,37.4,71,30.51,6.2,North,18.4,-,N/A,,Partly Cloudy,10,2013-04-20 11:50:00
2:00 PM,47,37,59,30.51,19,North,17.9,,,,Scattered Clouds,10,2013-04-20 12:00:00
2:20 PM,46.4,35.6,66,30.48,6.2,North,20.7,-,N/A,,Partly Cloudy,10,2013-04-20 12:20:00
2:50 PM,46.4,35.6,66,30.48,6.2,NNE,19.6,-,N/A,,Partly Cloudy,20,2013-04-20 12:50:00
3:20 PM,48.2,35.6,62,30.48,6.2,NNE,18.4,-,N/A,,Partly Cloudy,20,2013-04-20 13:20:00
3:50 PM,46.4,35.6,66,30.45,6.2,NNE,19.6,-,N/A,,Partly Cloudy,20,2013-04-20 13:50:00
4:20 PM,48.2,35.6,62,30.45,6.2,NNE,19.6,-,N/A,,Partly Cloudy,20,2013-04-20 14:20:00
4:50 PM,48.2,35.6,62,30.45,6.2,NNE,19.6,-,N/A,,Partly Cloudy,20,2013-04-20 14:50:00
5:00 PM,48,36,52,30.45,19,NNE,20.1,,,,Scattered Clouds,20,2013-04-20 15:00:00
5:20 PM,46.4,35.6,66,30.42,6.2,NNE,19.6,-,N/A,,Partly Cloudy,20,2013-04-20 15:20:00
5:50 PM,46.4,35.6,66,30.42,6.2,NNE,19.6,-,N/A,,Partly Cloudy,20,2013-04-20 15:50:00
6:20 PM,46.4,35.6,66,30.42,6.2,NNE,19.6,-,N/A,,Partly Cloudy,20,2013-04-20 16:20:00
6:50 PM,44.6,35.6,71,30.39,6.2,NNE,20.7,-,N/A,,Partly Cloudy,20,2013-04-20 16:50:00
7:20 PM,44.6,35.6,71,30.39,6.2,NNE,20.7,-,N/A,,Partly Cloudy,20,2013-04-20 17:20:00
7:50 PM,44.6,35.6,71,30.39,6.2,NNE,18.4,-,N/A,,Partly Cloudy,30,2013-04-20 17:50:00
8:00 PM,44,36,64,30.40,19,NNE,17.9,,,,Scattered Clouds,30,2013-04-20 18:00:00
8:20 PM,42.8,35.6,76,30.39,6.2,NNE,18.4,-,N/A,,Partly Cloudy,30,2013-04-20 18:20:00
8:50 PM,42.8,37.4,81,30.39,6.2,NNE,15.0,-,N/A,,Partly Cloudy,30,2013-04-20 18:50:00
9:20 PM,42.8,37.4,81,30.39,6.2,NNE,16.1,-,N/A,,Partly Cloudy,30,2013-04-20 19:20:00
9:50 PM,42.8,37.4,81,30.39,6.2,NE,13.8,-,N/A,,Partly Cloudy,40,2013-04-20 19:50:00
10:20 PM,42.8,37.4,81,30.39,6.2,NNE,15.0,-,N/A,,Partly Cloudy,30,2013-04-20 20:20:00
10:50 PM,42.8,37.4,81,30.36,6.2,NNE,13.8,-,N/A,,Partly Cloudy,30,2013-04-20 20:50:00
11:00 PM,42,38,80,30.38,11,NNE,13.4,,,,Scattered Clouds,30,2013-04-20 21:00:00
11:20 PM,42.8,37.4,81,30.36,6.2,NE,12.7,-,N/A,,Partly Cloudy,40,2013-04-20 21:20:00
11:50 PM,42.8,37.4,81,30.36,6.2,NE,11.5,-,N/A,,Partly Cloudy,40,2013-04-20 21:50:00